CKK228 ZBTJ-ZSFZ

Flight info

Callsign CKK228
Flight time N/A
Altitude 37100
Route ELKUR W40 YQG W142 DALIM A593 DPX A470 OF W95 SAPIN V143 EMRID A470 BZ
Aircraft MD11/H-SDE1E2E3FGHIJ2J3J4J5M1RWXY/LB1D1

Departure

Time 2026-04-23 12:22
Airport Tianjin Binhai International Airport (ZBTJ)

Arrival

Time N/A
Airport Fuzhou Changle International Airport (ZSFZ)
Time Latitude Longitude Altitude Speed Heading
2026-04-23 11:47 39.12967 117.33795 25 ft 0 kts 242°
2026-04-23 12:09 39.12977 117.33822 27 ft 4 kts 245°
2026-04-23 12:10 39.12987 117.33849 25 ft 4 kts 260°
2026-04-23 12:10 39.12987 117.33874 27 ft 4 kts 306°
2026-04-23 12:10 39.12970 117.33894 25 ft 4 kts 335°
2026-04-23 12:10 39.12953 117.33903 27 ft 1 kts 335°
2026-04-23 12:11 39.12950 117.33905 27 ft 0 kts 335°
2026-04-23 12:15 39.12954 117.33903 27 ft 0 kts 335°
2026-04-23 12:15 39.12963 117.33898 26 ft 3 kts 336°
2026-04-23 12:16 39.12992 117.33881 27 ft 7 kts 336°
2026-04-23 12:16 39.13047 117.33851 27 ft 10 kts 335°
2026-04-23 12:16 39.13067 117.33839 27 ft 0 kts 335°
2026-04-23 12:17 39.13068 117.33838 27 ft 1 kts 335°
2026-04-23 12:17 39.13086 117.33827 27 ft 5 kts 335°
2026-04-23 12:17 39.13132 117.33819 27 ft 8 kts
2026-04-23 12:17 39.13188 117.33857 26 ft 10 kts 18°
2026-04-23 12:18 39.13266 117.33837 26 ft 13 kts 337°
2026-04-23 12:18 39.13361 117.33780 27 ft 17 kts 335°
2026-04-23 12:18 39.13476 117.33708 27 ft 20 kts 335°
2026-04-23 12:18 39.13613 117.33626 26 ft 23 kts 335°
2026-04-23 12:19 39.13763 117.33533 27 ft 22 kts 334°
2026-04-23 12:19 39.13860 117.33473 27 ft 13 kts 333°
2026-04-23 12:19 39.13906 117.33444 27 ft 0 kts 334°
2026-04-23 12:20 39.13923 117.33437 27 ft 4 kts 345°
2026-04-23 12:20 39.13965 117.33433 27 ft 6 kts
2026-04-23 12:20 39.13996 117.33481 27 ft 9 kts 62°
2026-04-23 12:20 39.14027 117.33569 27 ft 12 kts 73°
2026-04-23 12:21 39.13992 117.33659 26 ft 11 kts 148°
2026-04-23 12:21 39.13971 117.33673 27 ft 0 kts 153°
2026-04-23 12:21 39.13971 117.33674 27 ft 1 kts 153°
2026-04-23 12:22 39.13847 117.33750 27 ft 54 kts 155°
2026-04-23 12:22 39.13259 117.34111 27 ft 130 kts 154°
2026-04-23 12:22 39.12260 117.34723 88 ft 180 kts 155°
2026-04-23 12:22 39.11148 117.35456 765 ft 180 kts 156°
2026-04-23 12:23 39.10195 117.36111 1687 ft 169 kts 156°
2026-04-23 12:23 39.09169 117.36922 2381 ft 178 kts 154°
2026-04-23 12:23 39.08131 117.37769 3176 ft 175 kts 156°
2026-04-23 12:23 39.06959 117.38492 3496 ft 206 kts 163°
2026-04-23 12:24 39.05527 117.39250 3690 ft 236 kts 161°
2026-04-23 12:24 39.03999 117.40095 4330 ft 243 kts 160°
2026-04-23 12:24 39.02434 117.40991 4960 ft 250 kts 160°
2026-04-23 12:24 39.00840 117.41927 5589 ft 254 kts 159°
2026-04-23 12:25 38.99233 117.42918 6176 ft 259 kts 154°
2026-04-23 12:25 38.97819 117.44390 6707 ft 267 kts 130°
2026-04-23 12:25 38.97060 117.46556 7246 ft 271 kts 99°
2026-04-23 12:25 38.97063 117.48979 7738 ft 274 kts 83°
2026-04-23 12:26 38.97338 117.51400 8287 ft 274 kts 79°
2026-04-23 12:26 38.97659 117.53820 8826 ft 275 kts 79°
2026-04-23 12:26 38.97980 117.56239 9365 ft 276 kts 79°
2026-04-23 12:26 38.98297 117.58686 9881 ft 277 kts 79°
2026-04-23 12:27 38.98607 117.61138 10375 ft 278 kts 79°
2026-04-23 12:27 38.98884 117.63365 10788 ft 280 kts 80°
2026-04-23 12:27 38.99005 117.65868 11230 ft 282 kts 94°
2026-04-23 12:27 38.98497 117.68294 11674 ft 283 kts 118°
2026-04-23 12:28 38.97752 117.69651 11955 ft 283 kts 135°
2026-04-23 12:28 38.96490 117.70841 12293 ft 282 kts 156°
2026-04-23 12:28 38.95323 117.71360 12545 ft 282 kts 168°
2026-04-23 12:28 38.93983 117.71679 12820 ft 283 kts 174°
2026-04-23 12:29 38.92020 117.71902 13235 ft 284 kts 182°
2026-04-23 12:29 38.89418 117.71238 13427 ft 295 kts 207°
2026-04-23 12:29 38.88237 117.70296 13534 ft 299 kts 223°
2026-04-23 12:29 38.86927 117.68218 13681 ft 304 kts 245°
2026-04-23 12:30 38.86271 117.65605 13801 ft 317 kts 260°
2026-04-23 12:30 38.85912 117.62712 13937 ft 340 kts 264°
2026-04-23 12:30 38.85618 117.59611 14042 ft 361 kts 265°
2026-04-23 12:30 38.85504 117.56342 14474 ft 369 kts 272°
2026-04-23 12:31 38.85774 117.53053 15079 ft 373 kts 283°
2026-04-23 12:31 38.86458 117.49838 15606 ft 377 kts 284°
2026-04-23 12:31 38.86915 117.46552 16215 ft 381 kts 278°
2026-04-23 12:31 38.87158 117.43102 16816 ft 386 kts 275°
2026-04-23 12:32 38.87306 117.39652 17422 ft 389 kts 274°
2026-04-23 12:32 38.87425 117.36156 17981 ft 394 kts 274°
2026-04-23 12:32 38.87541 117.32628 18508 ft 397 kts 274°
2026-04-23 12:32 38.87659 117.29115 18972 ft 401 kts 274°
2026-04-23 12:33 38.87645 117.25524 19437 ft 405 kts 266°
2026-04-23 12:33 38.87111 117.21965 19904 ft 410 kts 253°
2026-04-23 12:33 38.86014 117.18563 20337 ft 415 kts 245°
2026-04-23 12:33 38.84666 117.15272 20803 ft 419 kts 242°
2026-04-23 12:34 38.83234 117.11995 21273 ft 422 kts 242°
2026-04-23 12:34 38.81797 117.08704 21752 ft 425 kts 242°
2026-04-23 12:34 38.80366 117.05364 22220 ft 429 kts 243°
2026-04-23 12:34 38.78946 117.01989 22715 ft 432 kts 243°
2026-04-23 12:35 38.77530 116.98577 23198 ft 436 kts 243°
2026-04-23 12:35 38.76213 116.95389 23622 ft 438 kts 243°
2026-04-23 12:35 38.74483 116.92148 24022 ft 443 kts 229°
2026-04-23 12:35 38.72169 116.89518 24423 ft 449 kts 214°
2026-04-23 12:36 38.69414 116.87619 24832 ft 453 kts 204°
2026-04-23 12:36 38.66473 116.86117 25234 ft 457 kts 201°
2026-04-23 12:36 38.64252 116.85014 25558 ft 459 kts 202°
2026-04-23 12:36 38.61107 116.83331 26018 ft 463 kts 204°
2026-04-23 12:37 38.58174 116.81601 26447 ft 466 kts 206°
2026-04-23 12:37 38.55259 116.79760 26869 ft 469 kts 207°
2026-04-23 12:37 38.52347 116.77849 27289 ft 472 kts 208°
2026-04-23 12:37 38.49427 116.75898 27698 ft 476 kts 208°
2026-04-23 12:38 38.46483 116.73922 28104 ft 479 kts 208°
2026-04-23 12:38 38.43522 116.71936 28503 ft 482 kts 208°
2026-04-23 12:38 38.40541 116.69943 28917 ft 485 kts 208°
2026-04-23 12:38 38.37524 116.67984 29313 ft 489 kts 206°
2026-04-23 12:39 38.34384 116.66289 29704 ft 492 kts 199°
2026-04-23 12:39 38.31098 116.65104 30050 ft 494 kts 191°
2026-04-23 12:39 38.27674 116.64543 30362 ft 496 kts 182°
2026-04-23 12:39 38.24226 116.64630 30665 ft 496 kts 173°
2026-04-23 12:40 38.20828 116.65333 31021 ft 495 kts 166°
2026-04-23 12:40 38.17500 116.66459 31402 ft 494 kts 162°
2026-04-23 12:40 38.14225 116.67752 31786 ft 493 kts 161°
2026-04-23 12:40 38.10962 116.69089 32165 ft 492 kts 161°
2026-04-23 12:41 38.07709 116.70419 32527 ft 491 kts 162°
2026-04-23 12:41 38.04454 116.71722 32882 ft 490 kts 162°
2026-04-23 12:41 38.01193 116.73001 33226 ft 490 kts 162°
2026-04-23 12:41 37.97938 116.74258 33553 ft 489 kts 163°
2026-04-23 12:42 37.94677 116.75506 33877 ft 489 kts 163°
2026-04-23 12:42 37.91428 116.76745 34154 ft 488 kts 163°
2026-04-23 12:42 37.88176 116.77982 34394 ft 488 kts 164°
2026-04-23 12:42 37.84921 116.79221 34619 ft 488 kts 164°
2026-04-23 12:43 37.81675 116.80455 34839 ft 488 kts 164°
2026-04-23 12:43 37.78415 116.81695 35006 ft 489 kts 164°
2026-04-23 12:43 37.71877 116.84178 35044 ft 492 kts 165°
2026-04-23 12:44 37.65323 116.86663 35051 ft 492 kts 165°
2026-04-23 12:44 37.58754 116.89150 35053 ft 492 kts 165°
2026-04-23 12:45 37.52188 116.91631 35058 ft 493 kts 165°
2026-04-23 12:45 37.45619 116.94108 35061 ft 493 kts 165°
2026-04-23 12:46 37.39048 116.96581 35064 ft 493 kts 165°
2026-04-23 12:46 37.32482 116.99048 35065 ft 493 kts 165°
2026-04-23 12:47 37.25937 117.01653 35066 ft 494 kts 162°
2026-04-23 12:47 37.19489 117.04654 35071 ft 494 kts 161°
2026-04-23 12:48 37.13327 117.07601 35075 ft 495 kts 161°
2026-04-23 12:48 37.06938 117.10623 35078 ft 494 kts 162°
2026-04-23 12:49 37.00498 117.13642 35081 ft 494 kts 162°
2026-04-23 12:49 36.94094 117.16633 35085 ft 494 kts 162°
2026-04-23 12:50 36.87657 117.19635 35088 ft 494 kts 162°
2026-04-23 12:50 36.81075 117.21901 35096 ft 488 kts 176°
2026-04-23 12:51 36.74328 117.22026 35097 ft 484 kts 186°
2026-04-23 12:51 36.67616 117.21647 35103 ft 484 kts 185°
2026-04-23 12:52 36.60874 117.21449 35107 ft 485 kts 184°
2026-04-23 12:52 36.54124 117.21383 35109 ft 485 kts 184°
2026-04-23 12:53 36.47384 117.21347 35116 ft 484 kts 184°
2026-04-23 12:53 36.40636 117.21643 35117 ft 489 kts 174°
2026-04-23 12:54 36.34016 117.23769 35123 ft 494 kts 166°
2026-04-23 12:54 36.27486 117.26455 35124 ft 494 kts 165°
2026-04-23 12:55 36.20938 117.29036 35127 ft 494 kts 167°
2026-04-23 12:55 36.14372 117.31504 35128 ft 493 kts 167°
2026-04-23 12:56 36.07792 117.33941 35125 ft 493 kts 167°